STARLINK-1741, 46567

Orbit data source: Space-Track

STARLINK-1741, 46567 is a payload satellite owned by SpaceX/Seattle (US) in LEO that was launched on Tue, 06 Oct 2020 UTC via an FALCON 9 launch vehicle from the Air Force Eastern Test Range (AFETR). Payload-class satellites include a variety of spacecraft equipped with specific instruments for various scientific and technological missions. These include communications satellites like Starlink; space stations such as the ISS; scientific satellites like the Hubble; Earth observation satellites from companies like Planet Labs, Umbra, and HawkEye 360; GPS; miniature CubeSats for education and research; and military/defense satellites.

Loading next visibility...
Identifier
46567, 2020-070AM
Orbit
LEO
Country
Flag of USUS
Related business
Manufacturer
SpaceX/Seattle
Mission
Partially operational Commercial Communications
Bus & Motor
STARLINK, Unknown motor
Mass
260 kg wet, ~248 kg dry
Launch date (UTC)
2020-10-06 (5 years ago)
Launch vehicle
FALCON 9
Launch site
Air Force Eastern Test Range (AFETR)
Object type
Payload
Rocket body
Debris
Shape & HBR
Box + 1 Pan, 10.1 m
Radar Cross Section
13.562 m², Large (>1 m²)

Expand to show TLE details & history
Last TLE update: 14 hours ago

TLE from 14 hours ago
0 STARLINK-1741
1 46567U 20070AM  25311.27582274  .00092068  00000-0  26920-2 0  9992
2 46567  53.0540 343.7049 0002153  49.0130 311.1057 15.34523531281376
Epoch: 2025-11-07T06:37Z
TLE epoch observation values (Epoch: 2025-11-07T06:37:11.084Z)
Latitude
-0.00005°
Longitude
-162.31344°
Altitude
462.258 km
Speed
7.637 km/s
True Right ascension
22h 54m 49s
True Declination
0° 00' 00"
Sunlit
Object was in full shadow at epoch
Visualization orbit readout
Latitude
Unknown
Longitude
Unknown
Altitude
Unknown
Speed
Unknown
Apparent Right ascension
Unknown
Apparent Declination
Unknown
Sunlit
N/A
Visualization observer readout
Local Sidereal Time
16:33:07
Azimuth
Unknown
Elevation
Unknown
Doppler factor
Unknown
Orbital elements
Apogee altitude
464.083 km
Perigee altitude
461.137 km
Semi-major axis
6,840.747 km
Eccentricity
0.00022
Inclination
53.054°
RAAN
343.7049°
Arg. of periapsis
49.013°
True anomaly
311.08711°
Mean anomaly
311.1057°
Eccentric anomaly
311.0964°
Mean motion
3.83608 °/min
Orbital period
93.85 mins
BSTAR
0.002692
Loading maneuver chart data...
Computing Atmospheric mass density...
Loading historical data...
Loading historical data...
Loading historical data...
Loading historical data...
Loading historical data...
Loading historical data...
Loading historical data...

Documentation

Showing up to 5 results
|